Location: Czu?�w
(50.1404°N, 18.9919°E)
Time: 02:47:23
(UTC+00:00)

Cosmos 1346 Rocket - Pass Details

Date: 27 October 2020
Orbit: 535 x 543 km, 81.2° (Epoch: 27 November)

Event Time Altitude Azimuth Distance (km) Brightness Sun altitude
Rises 17:43:38 0° 343° (NNW) 2,717 6.7 -22.1°
Reaches altitude 10° 17:45:51 10° 337° (NNW) 1,820 5.8 -22.5°
Maximum altitude 17:49:42 47° 264° (W) 730 3.8 -23.1°
Drops below altitude 10° 17:53:32 10° 190° (S) 1,807 5.5 -23.7°
Enters shadow 17:54:16 - 188° (S) 2,101 5.8 -23.8°
